Regional Weather Roundup
Issued by NWS Charleston, SC

Current Version | Previous Version | Graphics & Text | Print | Product List | Glossary On
Versions: 1 2 3 4 5 6 7 8 9 10 11 12 13 14 15 16 17 18 19 20 21 22 23 24 25 26 27 28 29 30 31 32 33 34 35 36 37 38 39 40 41 42 43 44 45 46 47 48 49 50
000
ASUS42 KCHS 172210
RWRCHS
REGIONAL WEATHER ROUNDUP
NATIONAL WEATHER SERVICE CHARLESTON SC
500 PM EST WED DEC 17 2014

NOTE: "FAIR" INDICATES FEW OR NO CLOUDS BELOW 12,000 FEET WITH NO
SIGNIFICANT WEATHER AND/OR OBSTRUCTIONS TO VISIBILITY.

NOT ALL STATIONS ARE QUALITY CONTROLLED BY THE NATIONAL
WEATHER SERVICE. USE DATA WITH CAUTION...ESPECIALLY
DEWPOINT OBSERVATIONS.

SCZ027-030-031-034>040-042>050-172300-
...SOUTHEAST SOUTH CAROLINA...

CITY           SKY/WX    TMP DP  RH WIND       PRES   REMARKS
N CHARLESTON   PTCLDY    57  41  55 S7        30.08R
WATERFRONT PRK   N/A     57 N/A N/A S8          N/A
MOUNT PLEASANT LGT RAIN  57  43  58 S7        30.08S
PINOPOLIS        N/A     64  46  52 CALM      30.00R
MONCKS CORNER  FAIR      59  45  58 CALM      30.08R
SUMMERVILLE    FAIR      61  43  51 W3        30.09R
BEAUFORT MCAS  MOCLDY    59  45  59 S5        30.09R
BEAUFORT ARPT  FAIR      55  45  67 S6        30.09S
HILTON HEAD IS PTCLDY    55  46  71 SE5       30.11S
WALTERBORO     CLEAR     61  36  39 W3        30.09R
ALLENDALE      FAIR      59  43  55 CALM      30.08S

...SOUTHERN MIDLANDS AND PEE DEE...

CITY           SKY/WX    TMP DP  RH WIND       PRES   REMARKS
GEORGETOWN     NOT AVBL
KINGSTREE      NOT AVBL
ORANGEBURG     CLEAR     58  38  47 W5        30.08R
BARNWELL       FAIR      57  45  62 CALM      30.09S
AIKEN          FAIR      55  41  58 SW5       30.12R
MANNING        NOT AVBL
COLUMBIA       PTCLDY    59  39  47 N3        30.07S
SUMTER         CLEAR     57  38  47 W6        30.06R
FLORENCE       CLEAR     58  39  49 W5        30.06R
MYRTLE BEACH   CLEAR     55  45  67 S10       30.08R
N MYRTLE BEACH CLEAR     53  46  77 SW8       30.06S

$$

GAZ063-065-086>088-099>101-113>116-118-119-134>141-150-172300-
...SOUTHEAST GEORGIA...

CITY           SKY/WX    TMP DP  RH WIND       PRES   REMARKS
SAVANNAH ARPT  MOCLDY    60  40  47 W5        30.09S
HUNTER AAF     CLEAR     60  42  51 W5        30.07S
FORT STEWART   CLEAR     60  43  54 W3        30.08F
STATESBORO     CLEAR     59  42  54 W3        30.10R
SYLVANIA       CLEAR     59  44  58 CALM      30.10S
CLAXTON        FAIR      55  46  71 CALM      30.10R

...CSRA...CENTRAL AND FAR SOUTHEAST GEORGIA...

CITY           SKY/WX    TMP DP  RH WIND       PRES   REMARKS
THOMSON        PTCLDY    59  45  59 CALM      30.14R
AUGUSTA-BUSH   CLEAR     59  38  45 W3        30.08S
AUGUSTA-DANIEL CLEAR     60  39  45 W3        30.09R
SWAINSBORO     FAIR      61  45  55 CALM      30.10F
VIDALIA        CLEAR     61  43  51 CALM      30.11R
EASTMAN        FAIR      60  42  51 CALM      30.14S
HAZLEHURST     FAIR      62  44  50 CALM      30.10S
ALMA           PTCLDY    60  40  47 CALM      30.10S
WAYCROSS       PTCLDY    63  46  54 W5        30.11S
JESUP          FAIR      63  46  55 W5        30.11S
BAXLEY         FAIR      63  43  48 CALM      30.10R
BRUNSWICK      CLEAR     63  41  45 W6        30.11S
SAINT SIMONS   CLEAR     61  43  51 W3        30.10S

$$

SCZ027-028-034-036>038-045-046-048>050-GAZ119-141-172300-
...LAKE AND SUPPLEMENTAL COASTAL OBSERVATIONS...

STATION/POSITION TIME  TEMP    WIND        PRES    WAVE   SWELL
                       AIR SEA DIR/SP/G            HT/PER HT/PER/DIR
                 (UTC) (F)     (DEG/KT/KT) (MB)    (FT/S) (FT/S/D)
UPR LAKE MARION  NOT AVBL
WINYAH BAY       2100   59     180/  6     1017.0S
LAKE MURRAY      2100   59     210/  3/  5 1018.3R
ACE BASIN NERRS  2100   58     180/  1     1019.0R
FORT PULASKI     2200   56 57  160/  4/  7 1019.4R
SAPELO ISLAND    NOT AVBL

$$

ANZ835-935-AMZ111-154-330-350-352-354-370-450-454-472-172300-
...C-MAN AND BUOY OBSERVATIONS...

STATION/POSITION TIME  TEMP    WIND        PRES    WAVE   SWELL
                       AIR SEA DIR/SP/G            HT/PER HT/PER/DIR
                 (UTC) (F)     (DEG/KT/KT) (MB)    (FT/S) (FT/S/D)
BUOY 41004       2200   60 73  220/  4/  6 1018.3S   2/11   2/11
BUOY 41008       2200   55 58  180/  6/  6 1019.2F   1/11   2/100/11
FOLLY BEACH CMAN 2100   56     190/  7/  8 1019.2F
CAPERS NEARSHORE 2100   57     190/  8/ 10   N/A
FRIPP NEARSHORE  NOT AVBL


STATION/POSITION TIME  TEMP    WIND        PRES    WAVE   SWELL
                       AIR SEA DIR/SP/G            HT/PER HT/PER/DIR
                 (UTC) (F)     (DEG/KT/KT) (MB)    (FT/S) (FT/S/D)
5E ST. MARYS GA  2200      62                N/A     1/11
FRYING PAN BUOY  2200   58 67  250/  8/ 10 1018.7F   2/ 6   2/170/ 6
BUOY 41025       2200   58                 1016.8R   3/ 7
CAPE LOOKOUT NC  2100   56     230/  6/  8 1016.6F
BUOY 41002       2052   67 73  310/  6/  8 1017.6R   6/ 7   7/280/ 7
BUOY 41010       2200   71 76  280/ 10/ 12 1018.9R   3/ 5   3/280/ 5
ST AUGUSTINE FL  2200   60      40/  5/  5 1020.3R


$$


USA.gov is the U.S. government's official web portal to all federal, state and local government web resources and services.